• In United Kingdom
  • List of Countries
  • For 7 days
  • Water Temperature
  • Satellite Maps
  • Weather Map
  • Weather Widgets
  • user-avatar
    Login

    Hourly Weather Thimphu

    Today, 20 June, Wednesday

    Time Temperature Precipitation Wind Pressure Humidity
    00:00 +12°C° 0 mm 1 mps 524 mmHg 89%
    01:00 +12°C° 0.2 mm 1 mps 524 mmHg 88%
    02:00 +12°C° 0.2 mm 1 mps 524 mmHg 88%
    03:00 +12°C° 0.2 mm 1 mps 524 mmHg 88%
    04:00 +12°C° 0.1 mm 1 mps 524 mmHg 87%
    05:00 +12°C° 0.1 mm 1 mps 525 mmHg 85%
    06:00 +12°C° 0 mm 0 mps 525 mmHg 84%
    07:00 +14°C° 0.1 mm 1 mps 526 mmHg 78%
    08:00 +15°C° 0.1 mm 1 mps 526 mmHg 73%
    09:00 +18°C° 0.1 mm 1 mps 527 mmHg 68%
    10:00 +18°C° 0.2 mm 2 mps 527 mmHg 66%
    11:00 +19°C° 0.2 mm 2 mps 528 mmHg 65%
    12:00 +20°C° 0.2 mm 3 mps 528 mmHg 63%
    13:00 +19°C° 0.2 mm 3 mps 527 mmHg 65%
    14:00 +19°C° 0.2 mm 3 mps 527 mmHg 67%
    15:00 +19°C° 0.2 mm 3 mps 526 mmHg 69%
    16:00 +18°C° 0.2 mm 2 mps 526 mmHg 74%
    17:00 +17°C° 0.2 mm 2 mps 525 mmHg 79%
    18:00 +16°C° 0.2 mm 2 mps 525 mmHg 84%
    19:00 +15°C° 0.1 mm 1 mps 525 mmHg 87%
    20:00 +14°C° 0.1 mm 1 mps 524 mmHg 91%
    21:00 +13°C° 0.1 mm 1 mps 524 mmHg 94%
    22:00 +13°C° 0.1 mm 1 mps 524 mmHg 93%
    23:00 +13°C° 0.1 mm 1 mps 524 mmHg 91%

    Tomorrow, 21 June, Thursday

    Time Temperature Precipitation Wind Pressure Humidity
    00:00 +13°C° 0.1 mm 1 mps 525 mmHg 90%
    01:00 +13°C° 0 mm 1 mps 524 mmHg 90%
    02:00 +13°C° 0 mm 1 mps 524 mmHg 89%
    03:00 +12°C° 0 mm 1 mps 524 mmHg 89%
    04:00 +13°C° 0 mm 1 mps 524 mmHg 87%
    05:00 +12°C° 0 mm 0 mps 524 mmHg 86%
    06:00 +12°C° 0 mm 0 mps 524 mmHg 85%
    07:00 +14°C° 0 mm 1 mps 525 mmHg 80%
    08:00 +16°C° 0 mm 1 mps 526 mmHg 75%
    09:00 +18°C° 0 mm 1 mps 527 mmHg 70%
    10:00 +18°C° 0.1 mm 2 mps 527 mmHg 69%
    11:00 +18°C° 0.1 mm 2 mps 527 mmHg 68%
    12:00 +19°C° 0.1 mm 2 mps 527 mmHg 67%
    13:00 +19°C° 0.4 mm 2 mps 527 mmHg 68%
    14:00 +18°C° 0.4 mm 2 mps 526 mmHg 70%
    15:00 +18°C° 0.4 mm 2 mps 526 mmHg 71%
    16:00 +17°C° 0.2 mm 2 mps 525 mmHg 75%
    17:00 +17°C° 0.2 mm 2 mps 525 mmHg 79%
    18:00 +16°C° 0.2 mm 2 mps 524 mmHg 82%
    19:00 +15°C° 0.1 mm 1 mps 524 mmHg 85%
    20:00 +14°C° 0.1 mm 1 mps 524 mmHg 88%
    21:00 +13°C° 0.1 mm 1 mps 524 mmHg 91%
    22:00 +13°C° 0 mm 1 mps 524 mmHg 90%
    23:00 +12°C° 0 mm 1 mps 524 mmHg 90%

    Day after tomorrow, 22 June, Friday

    Time Temperature Precipitation Wind Pressure Humidity
    00:00 +12°C° 0 mm 1 mps 524 mmHg 89%
    01:00 +12°C° 0 mm 1 mps 523 mmHg 89%
    02:00 +12°C° 0 mm 1 mps 523 mmHg 89%
    03:00 +10°C° 0 mm 0 mps 523 mmHg 89%
    04:00 +11°C° 0.1 mm 0 mps 523 mmHg 88%
    05:00 +11°C° 0.1 mm 0 mps 523 mmHg 87%
    06:00 +11°C° 0.1 mm 0 mps 524 mmHg 86%
    07:00 +14°C° 0.1 mm 1 mps 525 mmHg 80%
    08:00 +16°C° 0.1 mm 1 mps 526 mmHg 74%
    09:00 +18°C° 0.1 mm 1 mps 527 mmHg 68%
    10:00 +18°C° 0.1 mm 2 mps 527 mmHg 67%
    11:00 +19°C° 0.1 mm 2 mps 527 mmHg 66%
    12:00 +19°C° 0.1 mm 2 mps 527 mmHg 65%
    13:00 +19°C° 0.1 mm 2 mps 526 mmHg 68%
    14:00 +18°C° 0.1 mm 2 mps 526 mmHg 71%
    15:00 +18°C° 0.1 mm 2 mps 525 mmHg 73%
    16:00 +17°C° 0.2 mm 2 mps 525 mmHg 78%
    17:00 +16°C° 0.2 mm 2 mps 524 mmHg 82%
    18:00 +15°C° 0.2 mm 2 mps 524 mmHg 86%
    19:00 +15°C° 0.1 mm 1 mps 524 mmHg 88%
    20:00 +14°C° 0.1 mm 1 mps 524 mmHg 90%
    21:00 +13°C° 0.1 mm 1 mps 524 mmHg 92%
    22:00 +13°C° 0 mm 1 mps 524 mmHg 92%
    23:00 +13°C° 0 mm 1 mps 524 mmHg 92%

    23 June, Saturday

    Time Temperature Precipitation Wind Pressure Humidity
    00:00 +12°C° 0 mm 1 mps 523 mmHg 92%
    01:00 +12°C° 0.2 mm 1 mps 523 mmHg 91%
    02:00 +12°C° 0.2 mm 1 mps 523 mmHg 91%
    03:00 +12°C° 0.2 mm 1 mps 523 mmHg 90%
    04:00 +12°C° 0.2 mm 1 mps 523 mmHg 89%
    05:00 +11°C° 0.2 mm 0 mps 523 mmHg 87%
    06:00 +12°C° 0.2 mm 0 mps 523 mmHg 86%
    07:00 +14°C° 0.1 mm 1 mps 524 mmHg 80%
    08:00 +16°C° 0.1 mm 1 mps 525 mmHg 74%
    09:00 +18°C° 0.1 mm 2 mps 526 mmHg 68%
    10:00 +18°C° 0.2 mm 2 mps 527 mmHg 68%
    11:00 +19°C° 0.2 mm 2 mps 527 mmHg 68%
    12:00 +19°C° 0.2 mm 2 mps 527 mmHg 67%
    13:00 +19°C° 0.2 mm 2 mps 526 mmHg 70%
    14:00 +18°C° 0.2 mm 2 mps 525 mmHg 72%
    15:00 +18°C° 0.2 mm 2 mps 525 mmHg 74%
    16:00 +17°C° 0.1 mm 2 mps 524 mmHg 79%
    17:00 +16°C° 0.1 mm 2 mps 524 mmHg 83%
    18:00 +15°C° 0.1 mm 2 mps 523 mmHg 87%
    19:00 +15°C° 0.1 mm 1 mps 523 mmHg 89%
    20:00 +14°C° 0.1 mm 1 mps 523 mmHg 92%
    21:00 +12°C° 0.1 mm 0 mps 523 mmHg 94%
    22:00 +12°C° 0 mm 0 mps 523 mmHg 93%
    23:00 +12°C° 0 mm 0 mps 523 mmHg 92%

    24 June, Sunday

    Time Temperature Precipitation Wind Pressure Humidity
    00:00 +12°C° 0 mm 0 mps 523 mmHg 92%
    01:00 +11°C° 0.3 mm 0 mps 523 mmHg 92%
    02:00 +11°C° 0.3 mm 0 mps 522 mmHg 92%
    03:00 +11°C° 0.3 mm 0 mps 522 mmHg 92%
    04:00 +11°C° 0.6 mm 0 mps 522 mmHg 90%
    05:00 +11°C° 0.6 mm 0 mps 523 mmHg 89%
    06:00 +12°C° 0.6 mm 0 mps 523 mmHg 87%
    07:00 +14°C° 0.3 mm 1 mps 524 mmHg 83%
    08:00 +15°C° 0.3 mm 1 mps 524 mmHg 79%
    09:00 +16°C° 0.3 mm 2 mps 525 mmHg 75%
    10:00 +17°C° 0.4 mm 2 mps 525 mmHg 73%
    11:00 +17°C° 0.4 mm 2 mps 526 mmHg 72%
    12:00 +18°C° 0.4 mm 2 mps 526 mmHg 71%
    13:00 +18°C° 0.2 mm 2 mps 525 mmHg 72%
    14:00 +18°C° 0.2 mm 2 mps 525 mmHg 73%
    15:00 +18°C° 0.2 mm 2 mps 524 mmHg 73%
    16:00 +17°C° 0.1 mm 2 mps 524 mmHg 78%
    17:00 +16°C° 0.1 mm 2 mps 523 mmHg 83%
    18:00 +15°C° 0.1 mm 2 mps 523 mmHg 87%
    19:00 +15°C° 0 mm 1 mps 523 mmHg 90%
    20:00 +14°C° 0 mm 1 mps 523 mmHg 93%
    21:00 +13°C° 0 mm 1 mps 523 mmHg 96%
    22:00 +12°C° 0.1 mm 0 mps 523 mmHg 95%
    23:00 +12°C° 0.1 mm 0 mps 523 mmHg 94%

    25 June, Monday

    Time Temperature Precipitation Wind Pressure Humidity
    00:00 +12°C° 0.1 mm 0 mps 523 mmHg 93%
    01:00 +12°C° 0.2 mm 0 mps 523 mmHg 94%
    02:00 +12°C° 0.2 mm 0 mps 523 mmHg 94%
    03:00 +11°C° 0.2 mm 0 mps 522 mmHg 94%
    04:00 +13°C° 0.1 mm 1 mps 522 mmHg 92%
    05:00 +13°C° 0.1 mm 1 mps 523 mmHg 91%
    06:00 +13°C° 0.1 mm 1 mps 523 mmHg 89%
    07:00 +14°C° 0.5 mm 1 mps 523 mmHg 85%
    08:00 +15°C° 0.5 mm 1 mps 524 mmHg 81%
    09:00 +16°C° 0.5 mm 1 mps 525 mmHg 77%
    10:00 +15°C° 1.7 mm 1 mps 524 mmHg 81%
    11:00 +15°C° 1.7 mm 1 mps 524 mmHg 85%
    12:00 +14°C° 1.7 mm 1 mps 523 mmHg 89%
    13:00 +15°C° 0.5 mm 1 mps 524 mmHg 85%
    14:00 +16°C° 0.5 mm 1 mps 524 mmHg 80%
    15:00 +18°C° 0.5 mm 1 mps 524 mmHg 76%
    16:00 +16°C° 0.1 mm 1 mps 524 mmHg 79%
    17:00 +16°C° 0.1 mm 1 mps 524 mmHg 82%
    18:00 +15°C° 0.1 mm 2 mps 523 mmHg 85%
    19:00 +14°C° 0.1 mm 1 mps 523 mmHg 89%
    20:00 +14°C° 0.1 mm 1 mps 523 mmHg 92%
    21:00 +13°C° 0.1 mm 1 mps 523 mmHg 96%
    22:00 +13°C° 0 mm 1 mps 523 mmHg 95%
    23:00 +13°C° 0 mm 1 mps 523 mmHg 95%
    Show more